This demonstration page uses our WeatherBlox Daily Observations layout. Learn more.

Left ArrowRight Arrow

Hourly Observations for February 28, 2022

Temp ( °F °C ) Dew Point ( °F °C ) Humidity (%) Winds ( mph kmh ) Pressure ( in mb ) Visibility ( mi km ) Precip ( " mm )
12:56 am 00:56 undefined 29 -1.4 9 -13 41 41 Calm 30.17 1022 10 16 0.00 0.00
1:56 am 01:56 Clear 28 -2.3 10 -12.4 46 46 Calm 30.16 1021 10 16 0.00 0.00
2:56 am 02:56 Clear 28 -2.1 9 -13 43 43 Calm 30.14 1021 10 16 0.00 0.00
3:56 am 03:56 Clear 25 -3.7 11 -11.9 53 53 Calm 30.15 1021 10 16 0.00 0.00
4:56 am 04:56 Clear 26 -3.2 10 -12.4 49 49 Calm 30.17 1022 10 16 0.00 0.00
5:56 am 05:56 Clear 26 -3.6 10 -12.5 51 51 Calm 30.19 1022 10 16 0.00 0.00
6:56 am 06:56 Clear 25 -3.8 10 -12.2 53 53 Calm 30.18 1022 8 13 0.00 0.00
7:56 am 07:56 Hazy 27 -2.9 12 -10.9 54 54 Calm 30.17 1022 3 5 0.00 0.00
8:56 am 08:56 Partly Cloudy 33 0.4 12 -11.3 41 41 WNW 7 11 30.20 1023 10 16 0.00 0.00
9:56 am 09:56 undefined 39 3.9 12 -10.9 33 33 NW 3 6 30.19 1022 10 16 0.00 0.00
10:56 am 10:56 Mostly Sunny 48 8.8 15 -9.7 26 26 NW 5 7 30.19 1023 10 16 0.00 0.00
12:56 pm 12:56 Sunny 64 17.5 13 -10.3 14 14 W 7 11 30.14 1021 10 16 0.00 0.00
1:56 pm 13:56 Sunny 66 19.1 12 -11 12 12 W 8 13 30.10 1019 10 16 0.00 0.00
2:56 pm 14:56 Sunny 69 20.3 12 -11.2 11 11 SW 9 15 30.06 1018 9 14 0.00 0.00
3:56 pm 15:56 Sunny 69 20.5 12 -11 11 11 W 10 17 30.03 1017 9 14 0.00 0.00
4:56 pm 16:56 Sunny 67 19.7 13 -10.5 12 12 WSW 12 19 30.03 1017 10 16 0.00 0.00
5:56 pm 17:56 Sunny 62 16.8 15 -9.2 16 16 WSW 7 11 30.03 1017 10 16 0.00 0.00
6:56 pm 18:56 Clear 56 13.5 13 -10.4 18 18 SW 5 7 30.05 1018 10 16 0.00 0.00
7:56 pm 19:56 Clear 53 11.8 13 -10.5 20 20 SW 6 9 30.04 1017 10 16 0.00 0.00
8:56 pm 20:56 Clear 52 11.3 15 -9.7 22 22 SW 6 9 30.03 1017 10 16 0.00 0.00
9:56 pm 21:56 Clear 45 7.1 14 -10.2 28 28 ESE 3 6 30.03 1017 10 16 0.00 0.00
10:56 pm 22:56 Clear 41 5 13 -10.3 32 32 ESE 6 9 30.02 1017 10 16 0.00 0.00
11:56 pm 23:56 Clear 43 5.9 13 -10.4 30 30 Calm 30.00 1016 10 16 0.00 0.00

Powered by AerisWeather